STARLINK-35688 (67019 NORAD) Tracking and Keplerian Element Data

This shows tracking and keplerian element data for the satellite.

Feedback or suggestion? Click here.




ElementValue
Catalog67019
NameSTARLINK-35688
Epoch Orbit151
Epoch Day354.25003472
Epoch Year2025
RAAN301.9442
Inclination69.9935
Eccentricity0.0003885
Argument of Perigee271.5164
Mean Anonmoly331.6799
Mean Motion15.9276271
Decay Rate-0.01277205
L11 67019U 25293S 25354.25003472 -.01277205 47843-3 -37063-2 0 9992
L22 67019 69.9935 301.9442 0003885 271.5164 331.6799 15.92762710 1514



Live tracking and technical data element details for STARLINK-35688 (NORAD 67019). STARLINK-35688 can be tracked NOW for your location showing map with azimuth and elevation plus other details from your city location.







IsCatalogInMostPopularTable: catalog: 67019, numindb: 45
Update: records affected: 1



GetName: 67019 STARLINK-35688

Hit Count: updated at: Tue, 17 Feb 2026 12:21:02 GMT